Location: WWIN Observatory
(34.8953°N, 91.9583°W)
Time: 15:37:46
(UTC-05:00)

Daily predictions for brighter satellites

Satellite Brightness Start Highest point End
(mag) Time Altitude Azimuth Time Altitude Azimuth Time Altitude Azimuth
Cosmos 2142 Rocket 4.5 20:08:30 10° S 20:14:35 74° E 20:20:44 10° N
OAO 3 Rocket 3.3 20:14:06 10° W 20:18:56 75° SSW 20:23:50 10° ESE
Cosmos 1862 Rocket 3.9 20:17:44 10° SSE 20:21:58 44° E 20:26:14 10° NNE
Cosmos 2026 Rocket 4.1 20:16:28 10° N 20:22:34 59° E 20:28:33 10° SSE
SJ-6B 3.5 20:19:11 10° S 20:23:05 59° W 20:27:07 10° NNW
Meteor 2-10 Rocket 4.5 20:19:15 10° SSE 20:24:23 33° E 20:29:30 10° NNE
CZ-2D R/B 3.6 20:22:13 10° SSE 20:25:58 48° ENE 20:29:43 10° N
Spot 2 Rocket 3.6 20:22:07 10° SSE 20:27:07 61° ENE 20:32:07 10° N
Cosmos 2333 Rocket 4.0 20:32:08 10° ESE 20:33:14 11° E 20:34:21 10° E
Cosmos 1503 Rocket 4.3 20:29:04 10° NNW 20:34:17 73° WSW 20:39:25 10° S
Lacrosse 4 Rocket 2.4 20:32:28 10° NW 20:36:41 48° WSW 20:40:58 10° S
Intercosmos 25 Rocket 3.1 20:33:50 10° S 20:37:02 90° NNE 20:41:15 10° N
ALOS 3.5 20:34:45 10° S 20:39:11 44° W 20:43:39 10° NNW
Helios 1B rocket 2.8 20:36:12 10° NNE 20:40:05 40° E 20:43:57 10° S
Cosmos 2219 Rocket 3.4 20:42:38 10° SE 20:46:25 19° E 20:50:13 10° ENE
Envisat 3.5 20:42:56 11° SE 20:47:29 41° ENE 20:52:13 10° N
Resurs 1-3 3.7 20:44:50 10° S 20:49:12 80° WSW 20:53:36 10° NNW
SAR-Lupe-4 4.2 20:47:47 15° SE 20:50:19 38° ENE 20:53:41 10° N
USA 186 1.4 20:48:25 11° SSE 20:51:05 77° E 20:54:06 10° N
Meteor 1-29 3.3 20:49:14 10° NNE 20:52:32 41° E 20:55:47 10° S
SEDSat Delta rocket 3.7 20:53:15 10° W 20:57:57 53° S 21:01:31 20° ESE
Cosmos 1933 3.8 20:55:57 10° SSW 20:59:56 64° W 21:03:56 10° N
ERS-1 Rocket 4.1 21:01:58 20° ESE 21:04:09 27° ENE 21:08:18 10° NNE
Sakura Rocket 3.5 21:03:00 10° WSW 21:06:18 32° S 21:07:34 26° SE
Chunghua 1 4.4 21:03:39 10° WSW 21:07:22 82° S 21:09:26 25° E
Cosmos 1867 3.5 21:01:55 10° NNW 21:07:23 74° ENE 21:10:59 22° SE
SAR-Lupe-1 4.2 21:05:38 24° SE 21:07:32 56° ENE 21:11:03 10° N
Milstar 3 3.6 20:59:15 10° W 21:07:33 41° SSW 21:11:48 20° SE
Spot 1 4.4 21:04:16 12° SSE 21:09:00 78° ENE 21:14:02 10° N
Cosmos 2263 Rocket 2.6 21:04:35 10° NNW 21:10:04 60° WSW 21:15:33 10° S
CZ-4B DEB 4.4 21:08:31 20° SSE 21:10:54 85° E 21:14:27 10° N
Cosmos 2266 Rocket 4.3 21:06:02 10° N 21:12:10 50° E 21:16:21 21° SSE
Cosmos 1862 4.3 21:09:26 10° NNW 21:13:19 47° W 21:17:12 10° SSW
NOSS 3-1 (C) 3.4 21:10:28 10° S 21:15:51 49° ESE 21:21:46 10° NE
Cosmos 2221 Rocket 3.8 21:14:06 22° SSE 21:16:42 49° E 21:20:59 10° NNE
Cosmos 1782 4.1 21:18:24 24° ENE 21:18:24 24° ENE 21:21:13 10° NE
Meteor 1-26 Rocket 4.2 21:12:32 10° S 21:18:13 88° E 21:24:04 10° N
USA 229 DEB 4.3 21:16:50 10° SW 21:23:32 60° NW 21:30:23 10° NNE
USA 229 4.3 21:16:56 10° SW 21:23:39 61° NW 21:30:30 10° NNE
Cosmos 2237 4.5 21:22:17 10° SSW 21:27:59 71° WNW 21:33:44 10° NNE
Cosmos 2360 Rocket 3.6 21:23:02 10° SW 21:28:18 40° WNW 21:33:37 10° N
NOSS 3-1 (A) 3.4 21:28:18 10° S 21:33:41 48° ESE 21:39:36 10° NE
Resurs 01 Rocket 4.1 21:32:06 10° SW 21:35:21 20° W 21:38:38 10° NW
Cosmos 1908 Rocket 3.8 21:32:11 10° NNW 21:36:30 67° W 21:38:52 26° S
ATLAS 5 CENTAUR R/B 3.0 21:31:23 10° NW 21:37:26 57° WSW 21:41:37 22° S
COSMOS 2428 2.8 21:32:02 10° SSW 21:37:43 78° WNW 21:43:27 10° NNE
Helios 1A 4.1 21:35:08 15° SSW 21:38:18 43° W 21:42:21 10° NNW
Cosmos 1939 Rocket 3.2 21:36:47 30° S 21:38:38 64° W 21:42:35 10° NNW
CZ-4B DEB 3.7 21:38:31 34° SW 21:39:13 41° W 21:42:06 10° NNW
Cosmos 1980 4.2 21:42:14 36° E 21:42:14 36° E 21:47:04 10° NE
ARGOS 3.9 21:41:15 32° E 21:42:00 33° ENE 21:46:46 10° N
YAOGAN 6 2.4 21:46:02 83° S 21:46:10 90° W 21:49:47 10° NNW
Cosmos 1606 3.8 21:48:19 31° NE 21:48:19 31° NE 21:50:36 10° NNE
Okean 1-7 3.1 21:45:24 29° SSW 21:47:35 78° W 21:52:00 10° N
Cosmos 1777 Rocket 3.9 21:43:08 10° NNW 21:48:25 76° ENE 21:49:46 50° SE
Cosmos 1844 4.2 21:43:31 10° N 21:48:52 42° ENE 21:49:48 39° E
Cosmos 1782 Rocket 3.5 21:47:03 10° N 21:51:26 82° W 21:52:23 55° S
Atlas Centaur 2 2.8 21:46:50 10° W 21:53:11 56° S 21:55:28 42° SE
SPOT 1/Viking Rocket 4.5 21:55:00 31° ENE 21:55:00 31° ENE 21:59:32 10° N
Meteor 1-10 Rocket 4.2 21:54:01 41° SSE 21:56:04 68° E 22:01:53 10° NNE
OAO 1 Rocket 4.3 21:52:32 10° WSW 21:57:52 77° SSE 21:58:46 60° ESE
OAO 3 Rocket 4.3 21:57:54 10° W 22:02:01 30° SSW 22:02:01 30° SSW
MOS 1-B Rocket 4.0 22:02:57 50° E 22:03:43 53° ENE 22:09:09 10° N
MetOp-A 4.0 22:03:40 62° SE 22:04:30 76° ENE 22:09:52 10° N
Nadezhda 2 Rocket 4.4 21:58:24 10° N 22:04:52 81° E 22:06:48 48° SSE
USA 245 4.1 22:05:21 56° E 22:05:29 56° ENE 22:10:10 10° N
Meteor 1-25 Rocket 4.2 22:00:58 10° NNW 22:06:31 75° W 22:08:08 47° S
Cosmos 2237 Rocket 2.2 22:08:37 59° E 22:08:37 59° E 22:13:56 10° NNE
Cosmos 1844 Rocket 2.5 22:05:09 10° NNW 22:10:45 89° ENE 22:11:29 69° SSE
Meteor 1-20 Rocket 4.2 22:05:25 10° N 22:11:04 78° W 22:12:29 52° S
Okean 2 Rocket 3.3 22:08:03 10° NNW 22:12:32 67° W 22:12:43 66° WSW
Nimbus 7 Rocket 4.3 22:08:23 10° NNE 22:14:21 69° ESE 22:15:00 64° SE
CZ-4C R/B 3.5 22:08:25 10° NNW 22:15:17 43° NE 22:17:07 37° E
Cosmos 2333 Rocket 2.2 22:13:47 31° SSW 22:16:39 82° WNW 22:22:27 10° NNE
Cosmos 2278 Rocket 2.9 22:12:19 10° N 22:17:25 39° ENE 22:17:25 39° ENE
S3M 4.0 22:18:41 56° E 22:18:41 56° E 22:24:34 10° NNE
USA 234 3.3 22:17:39 53° ESE 22:19:10 69° NE 22:25:40 10° NW
Meteor 2-6 Rocket 4.4 22:24:06 47° SSW 22:25:53 73° W 22:31:51 10° N
Cosmos 2219 Rocket 3.0 22:24:31 10° SW 22:29:54 48° WNW 22:35:20 10° N
SPOT 5 3.3 22:37:06 57° NW 22:37:06 57° NW 22:40:58 10° NNW
SeaSat 1 3.3 22:38:34 43° NNE 22:38:34 43° NNE 22:42:19 10° NNW
ERS-1 Rocket 4.4 22:41:58 28° WSW 22:42:47 29° W 22:47:09 10° NW
H-2A R/B 2.6 22:47:20 50° N 22:47:20 50° N 22:50:58 10° N
NOSS 0 Rocket 4.5 22:44:08 26° SW 22:47:30 54° WNW 22:53:32 10° NNE
Cosmos 1745 Rocket 4.1 22:48:12 10° N 22:53:57 72° NNE 22:53:57 72° NNE
ASTEX 1 4.5 23:00:41 41° N 23:00:41 41° N 23:03:55 10° N
H-2A R/B 4.1 23:04:32 25° N 23:04:32 25° N 23:06:25 10° N
Terra 3.4 23:11:24 31° N 23:11:24 31° N 23:13:52 10° N
ATLAS 2AS CENTAUR R/B 3.3 23:26:52 55° NE 23:26:52 55° NE 23:33:03 10° NNE
SL-16 R/B 3.5 23:35:10 36° N 23:35:10 36° N 23:38:32 10° NNE
ATLAS 3B R/B 3.8 23:45:21 10° NNW 23:50:28 34° NNE 23:50:28 34° NNE
